Погода в Слониме

Беларусь     53°05′33″N   25°19′09″E
темп.,
°C
ветер,
м/с
пор.,
м/с
влажн.,
%
обл.,
%
осадки,
мм/ч
давл.,
гПа
погр.,
м
9 марта, вт
вт900:00−7ссз249036 0.0 101892
03:00−8ссз249344 0.0 102093
06:00−9ссз24930 0.0 1021104
09:00−9ссз24925 0.0 1022148
12:00−4с237585 0.0 1023588
15:00−3ссз226385 0.0 1023921
18:00−3ссз127284 0.0 1023419
21:00−7вюв008275 0.0 102521
10 марта, ср
ср1000:00−7ююв228792 0.0 102532
03:00−7ююв238696 0.0 102550
06:00−8ююв238625 0.0 102531
09:00−7ююв248513 0.0 1025125
12:00−2ю22640 0.0 1025622
15:00−1ю23560 0.0 1025979
18:00−2зсз00620 0.0 102443
21:00−5всв23781 0.0 102544
11 марта, чт
чт1100:00−6вюв22820 0.0 102628
03:00−6юв22810 0.0 102627
06:00−7вюв23810 0.0 102538
09:00−5юв36840 0.0 1026181
12:00−1ююв46671 0.0 1025991
15:00+1ююв576723 0.0 10231216
18:000ююв587498 0.1 1021840
21:00−2ююв5118299 0.1 1020557
12 марта, пт
пт1200:00−2ююв71381100 0.0 1019780
03:00−1ююв71476100 0.0 1016731
06:00−2ююв71487100 0.1 1012717
09:00−1ююв81595100 1.9 1010834
12:00+1ю61198100 2.8 1009476
15:00+2юз41099100 4.7 1008407
18:00+3з5129172 0.2 1009688
21:00+1зюз4119158 0.2 1012333
13 марта, сб
сб1300:00−1юз369326 0.0 1014132
03:00−1юз369213 0.0 1014137
06:00−1ююз38920 0.0 1014173
09:00+1ю5118847 0.0 1013305
12:00+3ю51186100 0.0 1012462
15:00+5ююз51082100 0.0 1011857
18:00+3ююз3997100 1.1 1010377
21:00+2з3699100 3.4 1010211